Change the Weather History Date:

Wednesday, February 13, 2013

  Actual Average Record
Temperature  
Mean Temperature 42 °F -  
Max Temperature 50 °F 46 °F 59 °F (1998)
Min Temperature 33 °F 35 °F 28 °F (1999)
Degree Days  
Heating Degree Days 24    
Moisture  
Dew Point 36 °F    
Average Humidity 86    
Maximum Humidity 100    
Minimum Humidity 75    
Precipitation  
Precipitation 0.00 in - - ()
Sea Level Pressure  
Sea Level Pressure 29.73 in    
Wind  
Wind Speed 15 mph ()    
Max Wind Speed 29 mph    
Max Gust Speed 44 mph    
Visibility 5.3 miles    
Events Rain , Snow    
Averages and records for this station are not official NWS values.
T = Trace of Precipitation, MM = Missing Value Source: Averaged Metar Reports

Daily Weather History Graph

Daily Weather History Graph

Search for Another Location

Airport or City:

Trip Planner

Search our weather history database for the weather conditions in past years. The results will help you decide how hot, cold, wet, or windy it might be!

Date:

Astronomy

Feb. 13, 2013 Rise Set
Actual Time 7:46 AM GMT 5:19 PM GMT
Civil Twilight 7:07 AM GMT 5:58 PM GMT
Nautical Twilight 6:24 AM GMT 6:41 PM GMT
Astronomical Twilight 5:42 AM GMT 7:23 PM GMT
Moon 8:23 AM GMT (2/13) 9:59 PM GMT (2/13)
Length of Visible Light 10h 50m
Length of Day
9h 33m
Waxing Crescent, 12% of the Moon is Illuminated
Feb 13
Waxing Crescent
Feb 17
First Quarter
Feb 25
Full
Mar 4
Last Quarter
Mar 11
New

Hourly Weather History & Observations

Time (GMT) Temp. Windchill Dew Point Humidity Pressure Visibility Wind Dir Wind Speed Gust Speed Precip Events Conditions
12:50 AM 35.6 °F 25.5 °F 28.4 °F 75% 30.04 in 6.2 mi SE 17.3 mph - N/A   Mostly Cloudy
1:50 AM 35.6 °F 27.5 °F 28.4 °F 75% 30.01 in 6.2 mi SE 11.5 mph - N/A   Mostly Cloudy
2:50 AM 35.6 °F 25.9 °F 28.4 °F 75% 29.98 in 6.2 mi SSE 16.1 mph - N/A   Mostly Cloudy
3:50 AM 35.6 °F 26.6 °F 28.4 °F 75% 29.98 in 6.2 mi SSE 13.8 mph - N/A   Mostly Cloudy
4:50 AM 35.6 °F 26.6 °F 28.4 °F 75% 29.98 in 6.2 mi SE 13.8 mph - N/A   Mostly Cloudy
5:50 AM 33.8 °F 25.8 °F 30.2 °F 87% 29.95 in 3.7 mi SE 10.4 mph - N/A Snow Light Snow
6:20 AM 33.8 °F 24.8 °F 30.2 °F 87% 29.95 in 4.3 mi SE 12.7 mph - N/A Snow Light Snow
6:50 AM 33.8 °F 23.5 °F 30.2 °F 87% 29.92 in 4.3 mi SSE 16.1 mph - N/A Snow Light Snow
7:20 AM 33.8 °F 23.5 °F 30.2 °F 87% 29.92 in 4.3 mi SSE 16.1 mph - N/A Snow Light Snow
7:50 AM 33.8 °F 23.5 °F 30.2 °F 87% 29.92 in 3.1 mi SE 16.1 mph - N/A Snow Light Snow
8:20 AM 33.8 °F 23.2 °F 30.2 °F 87% 29.89 in 2.5 mi SE 17.3 mph - N/A Snow Light Snow
8:50 AM 33.8 °F 22.8 °F 30.2 °F 87% 29.89 in 2.5 mi SE 18.4 mph - N/A Snow Light Snow
9:20 AM 33.8 °F 21.9 °F 30.2 °F 87% 29.86 in 2.5 mi SE 21.9 mph - N/A Snow Light Snow
9:50 AM 33.8 °F 23.2 °F 32.0 °F 93% 29.86 in 3.7 mi SE 17.3 mph - N/A Rain Light Rain
10:20 AM 35.6 °F 27.1 °F 32.0 °F 87% 29.83 in 5.6 mi ESE 12.7 mph - N/A Rain Light Rain
10:50 AM 35.6 °F 28.6 °F 32.0 °F 87% 29.83 in 6.2 mi ESE 9.2 mph - N/A Rain Light Rain
11:20 AM 35.6 °F 29.9 °F 32.0 °F 87% 29.80 in 6.2 mi Variable 6.9 mph - N/A Rain Light Rain
11:50 AM 37.4 °F 30.3 °F 32.0 °F 81% 29.80 in 6.2 mi SE 10.4 mph - N/A Rain Light Rain
12:20 PM 37.4 °F 28.5 °F 33.8 °F 87% 29.77 in 3.7 mi ESE 15.0 mph - N/A Rain Light Rain
12:50 PM 37.4 °F 28.2 °F 33.8 °F 87% 29.74 in 5.0 mi SE 16.1 mph 31.1 mph N/A Rain Light Rain
1:20 PM 37.4 °F 26.1 °F 33.8 °F 87% 29.71 in 4.3 mi SSE 24.2 mph - N/A Rain Light Rain
1:50 PM 37.4 °F 25.2 °F 33.8 °F 87% 29.65 in 4.3 mi SSE 28.8 mph 43.7 mph N/A Rain Light Rain
2:20 PM 37.4 °F 25.6 °F 35.6 °F 93% 29.65 in 5.6 mi SSE 26.5 mph 41.4 mph N/A Rain Light Rain
2:50 PM 37.4 °F 25.9 °F 35.6 °F 93% 29.62 in 6.2 mi SSE 25.3 mph - N/A Rain Light Rain
3:20 PM 41.0 °F 30.5 °F 35.6 °F 81% 29.59 in 6.2 mi SSE 26.5 mph 42.6 mph N/A Rain Light Rain
3:50 PM 41.0 °F 31.1 °F 37.4 °F 87% 29.59 in 6.2 mi SSE 23.0 mph - N/A Rain Light Rain
4:20 PM 41.0 °F 30.5 °F 37.4 °F 87% 29.59 in 6.2 mi SSE 26.5 mph 40.3 mph N/A Rain Light Rain
4:50 PM 41.0 °F 30.7 °F 37.4 °F 87% 29.56 in 6.2 mi SSE 25.3 mph - N/A Rain Light Rain
5:20 PM 41.0 °F 30.5 °F 37.4 °F 87% 29.53 in 5.6 mi South 26.5 mph - N/A Rain Light Rain
5:50 PM 41.0 °F 30.2 °F 39.2 °F 93% 29.53 in 5.6 mi SSE 27.6 mph - N/A Rain Light Rain
6:20 PM 42.8 °F 33.3 °F 39.2 °F 87% 29.53 in 5.6 mi SSE 24.2 mph - N/A Rain Light Rain
6:50 PM 42.8 °F 35.4 °F 39.2 °F 87% 29.56 in 5.6 mi South 15.0 mph - N/A Rain Light Rain
7:20 PM 42.8 °F 36.6 °F 41.0 °F 93% 29.56 in 5.6 mi SE 11.5 mph - N/A Rain Light Rain
7:50 PM 46.4 °F 43.5 °F 44.6 °F 93% 29.53 in 5.6 mi South 5.8 mph - N/A Rain Light Rain
8:20 PM 48.2 °F - 48.2 °F 100% 29.53 in 5.6 mi SSW 13.8 mph - N/A Rain Light Rain
8:50 PM 50.0 °F - 46.4 °F 87% 29.53 in 5.6 mi SSW 11.5 mph - N/A Rain Light Rain
9:20 PM 50.0 °F - 46.4 °F 87% 29.56 in 6.2 mi SSW 11.5 mph - N/A   Mostly Cloudy
9:50 PM 50.0 °F - 46.4 °F 87% 29.56 in 6.2 mi SSW 15.0 mph - N/A   Mostly Cloudy
10:20 PM 48.2 °F - 44.6 °F 87% 29.56 in 6.2 mi SW 17.3 mph - N/A   Mostly Cloudy
10:50 PM 48.2 °F - 42.8 °F 82% 29.56 in 6.2 mi SW 15.0 mph - N/A   Scattered Clouds
11:20 PM 46.4 °F 40.4 °F 42.8 °F 87% 29.56 in 6.2 mi SW 13.8 mph - N/A   Partly Cloudy
11:50 PM 46.4 °F 40.7 °F 42.8 °F 87% 29.56 in 6.2 mi SW 12.7 mph - N/A   Partly Cloudy